Location: Apeadero de Los Molinos-Guadarrama
(40.7091°N, 4.0689°W)
Time: 13:20:38
(UTC+00:00)

USA 267 - Pass Details

Date: 14 May 2021
Orbit: 1102 x 1106 km, 123.0° (Epoch: 17 June)

Event Time Altitude Azimuth Distance (km) Brightness Sun altitude
Exits shadow 19:56:23 - 144° (SE) 3,509 5.3 -5.9°
Reaches altitude 10° 19:57:51 10° 146° (SE) 2,951 5.0 -6.2°
Maximum altitude 20:04:18 63° 226° (SW) 1,220 3.6 -7.2°
Drops below altitude 10° 20:10:47 10° 308° (NW) 2,967 7.3 -8.2°
Sets 20:13:19 0° 311° (NW) 3,929 8.4 -8.6°
